| time (UTC) | temp F | wind direction | speed MPH | gust MPH | rain 1hr in | rain 24hr in | rain mn in | humidity % | barometer mb |
| 20260509115034 | 45 | 136 | 1.0 | 4.0 | 0.00 | 0.00 | 0.00 | 56 | 1007.0 |
| 20260509114531 | 45 | 173 | 0.0 | 8.0 | 0.00 | 0.00 | 0.00 | 57 | 1007.0 |
| 20260509114030 | 44 | 183 | 2.0 | 8.0 | 0.00 | 0.00 | 0.00 | 59 | 1006.9 |
| 20260509113531 | 43 | 172 | 0.0 | 3.0 | 0.00 | 0.00 | 0.00 | 60 | 1007.0 |
| 20260509113026 | 42 | 141 | 1.0 | 3.0 | 0.00 | 0.00 | 0.00 | 63 | 1007.0 |
| 20260509112525 | 42 | 247 | 0.0 | 2.0 | 0.00 | 0.00 | 0.00 | 65 | 1007.0 |
| 20260509112024 | 41 | 302 | 0.0 | 1.0 | 0.00 | 0.00 | 0.00 | 60 | 1007.0 |
| 20260509111524 | 41 | 302 | 0.0 | 1.0 | 0.00 | 0.00 | 0.00 | 61 | 1007.0 |
| 20260509111023 | 41 | 302 | 0.0 | 1.0 | 0.00 | 0.00 | 0.00 | 61 | 1006.9 |
| 20260509110526 | 40 | 302 | 0.0 | 1.0 | 0.00 | 0.00 | 0.00 | 59 | 1006.9 |
| 20260509110025 | 40 | 302 | 0.0 | 1.0 | 0.00 | 0.00 | 0.00 | 61 | 1006.9 |
| 20260509105520 | 40 | 302 | 0.0 | 1.0 | 0.00 | 0.00 | 0.00 | 61 | 1006.9 |
| 20260509105022 | 39 | 302 | 0.0 | 1.0 | 0.00 | 0.00 | 0.00 | 61 | 1007.0 |
| 20260509104518 | 39 | 302 | 0.0 | 0.0 | 0.00 | 0.00 | 0.00 | 62 | 1007.0 |
| 20260509104017 | 39 | 302 | 0.0 | 0.0 | 0.00 | 0.00 | 0.00 | 63 | 1006.9 |
| 20260509103515 | 39 | 302 | 0.0 | 0.0 | 0.00 | 0.00 | 0.00 | 63 | 1006.7 |
| 20260509103015 | 38 | 302 | 0.0 | 0.0 | 0.00 | 0.00 | 0.00 | 64 | 1006.7 |
| 20260509102515 | 38 | 302 | 0.0 | 0.0 | 0.00 | 0.00 | 0.00 | 64 | 1006.7 |
| 20260509102015 | 38 | 302 | 0.0 | 0.0 | 0.00 | 0.00 | 0.00 | 65 | 1006.7 |
| 20260509101520 | 37 | 302 | 0.0 | 0.0 | 0.00 | 0.00 | 0.00 | 64 | 1006.7 |
| 20260509101013 | 37 | 302 | 0.0 | 2.0 | 0.00 | 0.00 | 0.00 | 65 | 1006.8 |
| 20260509100513 | 37 | 302 | 0.0 | 2.0 | 0.00 | 0.00 | 0.00 | 66 | 1006.7 |
| 20260509100013 | 37 | 302 | 0.0 | 2.0 | 0.00 | 0.00 | 0.00 | 65 | 1006.7 |
| 20260509095513 | 37 | 302 | 0.0 | 0.0 | 0.00 | 0.00 | 0.00 | 65 | 1006.6 |
| 20260509095013 | 37 | 302 | 0.0 | 0.0 | 0.00 | 0.00 | 0.00 | 65 | 1006.5 |
| 20260509094514 | 37 | 302 | 0.0 | 1.0 | 0.00 | 0.00 | 0.00 | 65 | 1006.5 |
| 20260509094014 | 37 | 302 | 0.0 | 1.0 | 0.00 | 0.00 | 0.00 | 65 | 1006.4 |
| 20260509093512 | 38 | 302 | 0.0 | 1.0 | 0.00 | 0.00 | 0.00 | 66 | 1006.4 |
| 20260509093019 | 38 | 302 | 0.0 | 0.0 | 0.00 | 0.00 | 0.00 | 66 | 1006.3 |
| 20260509092511 | 38 | 302 | 0.0 | 0.0 | 0.00 | 0.00 | 0.00 | 65 | 1006.3 |
| 20260509092011 | 38 | 302 | 0.0 | 1.0 | 0.00 | 0.00 | 0.00 | 66 | 1006.3 |
| 20260509091511 | 38 | 302 | 0.0 | 1.0 | 0.00 | 0.00 | 0.00 | 65 | 1006.2 |
| 20260509091011 | 38 | 302 | 0.0 | 0.0 | 0.00 | 0.00 | 0.00 | 65 | 1006.3 |
| 20260509090511 | 38 | 302 | 0.0 | 0.0 | 0.00 | 0.00 | 0.00 | 66 | 1006.2 |
| 20260509090011 | 38 | 302 | 0.0 | 0.0 | 0.00 | 0.00 | 0.00 | 64 | 1006.3 |
| 20260509085509 | 38 | 302 | 0.0 | 0.0 | 0.00 | 0.00 | 0.00 | 64 | 1006.3 |
| 20260509085008 | 38 | 302 | 0.0 | 1.0 | 0.00 | 0.00 | 0.00 | 65 | 1006.2 |
| 20260509084513 | 38 | 302 | 0.0 | 1.0 | 0.00 | 0.00 | 0.00 | 65 | 1006.3 |
| 20260509084007 | 38 | 302 | 0.0 | 1.0 | 0.00 | 0.00 | 0.00 | 66 | 1006.2 |
| 20260509083507 | 38 | 302 | 0.0 | 1.0 | 0.00 | 0.00 | 0.00 | 67 | 1006.2 |
| 20260509083005 | 38 | 302 | 0.0 | 2.0 | 0.00 | 0.00 | 0.00 | 67 | 1006.2 |
| 20260509082504 | 38 | 302 | 0.0 | 2.0 | 0.00 | 0.00 | 0.00 | 67 | 1006.2 |
| 20260509082006 | 38 | 208 | 0.0 | 1.0 | 0.00 | 0.00 | 0.00 | 66 | 1006.2 |
| 20260509081508 | 38 | 208 | 0.0 | 1.0 | 0.00 | 0.00 | 0.00 | 67 | 1006.2 |
| 20260509081006 | 37 | 208 | 0.0 | 1.0 | 0.00 | 0.00 | 0.00 | 67 | 1006.2 |
| 20260509080502 | 37 | 209 | 0.0 | 2.0 | 0.00 | 0.00 | 0.00 | 67 | 1006.3 |
| 20260509080003 | 37 | 209 | 0.0 | 2.0 | 0.00 | 0.00 | 0.00 | 68 | 1006.4 |
| 20260509075503 | 37 | 305 | 0.0 | 0.0 | 0.00 | 0.00 | 0.00 | 67 | 1006.4 |
| 20260509075001 | 37 | 305 | 0.0 | 0.0 | 0.00 | 0.00 | 0.00 | 68 | 1006.4 |
| 20260509074502 | 38 | 305 | 0.0 | 0.0 | 0.00 | 0.00 | 0.00 | 67 | 1006.4 |
| 20260509074000 | 38 | 305 | 0.0 | 0.0 | 0.00 | 0.00 | 0.00 | 68 | 1006.4 |
| 20260509073600 | 37 | 305 | 0.0 | 0.0 | 0.00 | 0.00 | 0.00 | 67 | 1006.4 |
| 20260509073500 | 37 | 305 | 0.0 | 0.0 | 0.00 | 0.00 | 0.00 | 67 | 1006.5 |
| 20260509073102 | 38 | 305 | 0.0 | 0.0 | 0.00 | 0.00 | 0.00 | 67 | 1006.5 |
| 20260509072600 | 38 | 305 | 0.0 | 0.0 | 0.00 | 0.00 | 0.00 | 67 | 1006.5 |
| 20260509072100 | 37 | 305 | 0.0 | 0.0 | 0.00 | 0.00 | 0.00 | 67 | 1006.5 |
| 20260509071616 | 37 | 305 | 0.0 | 0.0 | 0.00 | 0.00 | 0.00 | 67 | 1006.5 |
| 20260509071059 | 37 | 305 | 0.0 | 0.0 | 0.00 | 0.00 | 0.00 | 67 | 1006.6 |
| 20260509070559 | 37 | 305 | 0.0 | 0.0 | 0.00 | 0.00 | 0.00 | 67 | 1006.5 |
| 20260509070107 | 37 | 305 | 0.0 | 0.0 | 0.00 | 0.00 | 0.00 | 67 | 1006.5 |
| 20260509065558 | 37 | 305 | 0.0 | 0.0 | 0.00 | 0.00 | 0.00 | 67 | 1006.5 |
| 20260509065057 | 37 | 305 | 0.0 | 0.0 | 0.00 | 0.00 | 0.00 | 67 | 1006.5 |
| 20260509064558 | 37 | 305 | 0.0 | 0.0 | 0.00 | 0.00 | 0.00 | 68 | 1006.6 |
| 20260509064057 | 37 | 305 | 0.0 | 0.0 | 0.00 | 0.00 | 0.00 | 68 | 1006.5 |
| 20260509063558 | 37 | 305 | 0.0 | 0.0 | 0.00 | 0.00 | 0.00 | 68 | 1006.5 |
| 20260509063056 | 37 | 305 | 0.0 | 0.0 | 0.00 | 0.00 | 0.00 | 68 | 1006.5 |
| 20260509062556 | 37 | 305 | 0.0 | 0.0 | 0.00 | 0.00 | 0.00 | 68 | 1006.5 |
| 20260509062054 | 37 | 305 | 0.0 | 0.0 | 0.00 | 0.00 | 0.00 | 68 | 1006.6 |
| 20260509061607 | 37 | 305 | 0.0 | 0.0 | 0.00 | 0.00 | 0.00 | 68 | 1006.6 |
| 20260509061054 | 37 | 305 | 0.0 | 0.0 | 0.00 | 0.00 | 0.00 | 68 | 1006.6 |
| 20260509060554 | 37 | 305 | 0.0 | 0.0 | 0.00 | 0.00 | 0.00 | 68 | 1006.6 |
| 20260509060057 | 37 | 305 | 0.0 | 0.0 | 0.00 | 0.00 | 0.00 | 68 | 1006.6 |
| 20260509055553 | 36 | 305 | 0.0 | 0.0 | 0.00 | 0.00 | 0.00 | 68 | 1006.6 |
| 20260509055053 | 36 | 305 | 0.0 | 0.0 | 0.00 | 0.00 | 0.00 | 69 | 1006.6 |
| 20260509054612 | 36 | 305 | 0.0 | 0.0 | 0.00 | 0.00 | 0.00 | 68 | 1006.6 |
| 20260509054052 | 36 | 305 | 0.0 | 0.0 | 0.00 | 0.00 | 0.00 | 69 | 1006.6 |
| 20260509053552 | 36 | 305 | 0.0 | 1.0 | 0.00 | 0.00 | 0.00 | 69 | 1006.6 |
| 20260509053142 | 36 | 305 | 0.0 | 2.0 | 0.00 | 0.00 | 0.00 | 69 | 1006.6 |
| 20260509052555 | 36 | 305 | 0.0 | 2.0 | 0.00 | 0.00 | 0.00 | 69 | 1006.6 |
| 20260509052049 | 36 | 305 | 0.0 | 2.0 | 0.00 | 0.00 | 0.00 | 69 | 1006.6 |
| 20260509051553 | 36 | 305 | 0.0 | 0.0 | 0.00 | 0.00 | 0.00 | 68 | 1006.6 |
| 20260509051049 | 36 | 305 | 0.0 | 0.0 | 0.00 | 0.00 | 0.00 | 69 | 1006.5 |
| 20260509050548 | 37 | 305 | 0.0 | 0.0 | 0.00 | 0.00 | 0.00 | 68 | 1006.5 |
| 20260509050050 | 37 | 305 | 0.0 | 0.0 | 0.00 | 0.00 | 0.00 | 68 | 1006.5 |
| 20260509045547 | 37 | 305 | 0.0 | 2.0 | 0.00 | 0.00 | 0.00 | 68 | 1006.5 |
| 20260509045046 | 37 | 305 | 0.0 | 2.0 | 0.00 | 0.00 | 0.00 | 68 | 1006.5 |
| 20260509044548 | 37 | 305 | 0.0 | 0.0 | 0.00 | 0.00 | 0.00 | 68 | 1006.4 |
| 20260509044045 | 37 | 305 | 0.0 | 0.0 | 0.00 | 0.00 | 0.00 | 68 | 1006.5 |
| 20260509043547 | 37 | 305 | 0.0 | 0.0 | 0.00 | 0.00 | 0.00 | 68 | 1006.4 |
| 20260509043044 | 37 | 305 | 0.0 | 0.0 | 0.00 | 0.00 | 0.00 | 67 | 1006.4 |
| 20260509042543 | 37 | 305 | 0.0 | 0.0 | 0.00 | 0.00 | 0.00 | 68 | 1006.5 |
| 20260509042044 | 37 | 305 | 0.0 | 1.0 | 0.00 | 0.00 | 0.00 | 68 | 1006.4 |
| 20260509041543 | 37 | 305 | 0.0 | 1.0 | 0.00 | 0.00 | 0.00 | 68 | 1006.5 |
| 20260509041041 | 37 | 305 | 0.0 | 0.0 | 0.00 | 0.00 | 0.00 | 68 | 1006.4 |
| 20260509040540 | 37 | 305 | 0.0 | 1.0 | 0.00 | 0.00 | 0.00 | 68 | 1006.4 |
| 20260509040046 | 37 | 305 | 0.0 | 1.0 | 0.00 | 0.00 | 0.00 | 69 | 1006.3 |
| 20260509035542 | 37 | 305 | 0.0 | 1.0 | 0.00 | 0.00 | 0.00 | 70 | 1006.3 |
| 20260509035040 | 37 | 305 | 0.0 | 2.0 | 0.00 | 0.00 | 0.00 | 70 | 1006.2 |
| 20260509034541 | 37 | 305 | 0.0 | 2.0 | 0.00 | 0.00 | 0.00 | 71 | 1006.3 |
| 20260509034039 | 37 | 305 | 0.0 | 2.0 | 0.00 | 0.00 | 0.00 | 70 | 1006.2 |
| 20260509033539 | 37 | 305 | 0.0 | 2.0 | 0.00 | 0.00 | 0.00 | 71 | 1006.2 |
| 20260509033039 | 37 | 305 | 0.0 | 2.0 | 0.00 | 0.00 | 0.00 | 71 | 1006.2 |
| 20260509032540 | 37 | 305 | 0.0 | 2.0 | 0.00 | 0.00 | 0.00 | 72 | 1006.1 |
| 20260509032036 | 37 | 305 | 0.0 | 1.0 | 0.00 | 0.00 | 0.00 | 70 | 1006.0 |
| 20260509031537 | 38 | 305 | 0.0 | 0.0 | 0.00 | 0.00 | 0.00 | 70 | 1006.0 |
| 20260509031037 | 38 | 305 | 0.0 | 0.0 | 0.00 | 0.00 | 0.00 | 70 | 1005.9 |
| 20260509030537 | 38 | 305 | 0.0 | 0.0 | 0.00 | 0.00 | 0.00 | 69 | 1005.9 |
| 20260509030039 | 38 | 305 | 0.0 | 1.0 | 0.00 | 0.00 | 0.00 | 69 | 1006.0 |
| 20260509025536 | 38 | 305 | 0.0 | 1.0 | 0.00 | 0.00 | 0.00 | 69 | 1005.9 |
| 20260509025035 | 38 | 305 | 0.0 | 0.0 | 0.00 | 0.00 | 0.00 | 70 | 1005.8 |
| 20260509024537 | 38 | 305 | 0.0 | 0.0 | 0.00 | 0.00 | 0.00 | 71 | 1005.8 |
| 20260509024035 | 39 | 305 | 0.0 | 0.0 | 0.00 | 0.00 | 0.00 | 69 | 1005.9 |
| 20260509023537 | 39 | 305 | 0.0 | 0.0 | 0.00 | 0.00 | 0.00 | 69 | 1005.9 |
| 20260509023045 | 39 | 305 | 0.0 | 1.0 | 0.00 | 0.00 | 0.00 | 68 | 1005.9 |
| 20260509022538 | 39 | 305 | 0.0 | 1.0 | 0.00 | 0.00 | 0.00 | 68 | 1005.8 |
| 20260509022037 | 39 | 305 | 0.0 | 2.0 | 0.00 | 0.00 | 0.00 | 68 | 1005.9 |
| 20260509021534 | 40 | 305 | 0.0 | 2.0 | 0.00 | 0.00 | 0.00 | 69 | 1005.9 |
| 20260509021033 | 40 | 305 | 1.0 | 2.0 | 0.00 | 0.00 | 0.00 | 67 | 1005.8 |
| 20260509020532 | 40 | 305 | 0.0 | 1.0 | 0.00 | 0.00 | 0.00 | 68 | 1005.8 |
| 20260509020038 | 41 | 305 | 0.0 | 0.0 | 0.00 | 0.00 | 0.00 | 66 | 1005.8 |
| 20260509015532 | 41 | 305 | 0.0 | 1.0 | 0.00 | 0.00 | 0.00 | 65 | 1005.8 |
| 20260509015033 | 41 | 305 | 0.0 | 1.0 | 0.00 | 0.00 | 0.00 | 65 | 1005.7 |
| 20260509014537 | 41 | 305 | 0.0 | 0.0 | 0.00 | 0.00 | 0.00 | 64 | 1005.8 |
| 20260509014031 | 42 | 305 | 0.0 | 1.0 | 0.00 | 0.00 | 0.00 | 64 | 1005.7 |
| 20260509013532 | 42 | 305 | 0.0 | 1.0 | 0.00 | 0.00 | 0.00 | 64 | 1005.6 |
| 20260509013031 | 42 | 305 | 0.0 | 1.0 | 0.00 | 0.00 | 0.00 | 63 | 1005.6 |
| 20260509012530 | 42 | 305 | 0.0 | 0.0 | 0.00 | 0.00 | 0.00 | 64 | 1005.5 |
| 20260509012030 | 42 | 305 | 0.0 | 0.0 | 0.00 | 0.00 | 0.00 | 64 | 1005.4 |
| 20260509011532 | 42 | 305 | 0.0 | 0.0 | 0.00 | 0.00 | 0.00 | 64 | 1005.3 |
| 20260509011028 | 43 | 305 | 0.0 | 1.0 | 0.00 | 0.00 | 0.00 | 64 | 1005.2 |
| 20260509010527 | 43 | 305 | 0.0 | 1.0 | 0.00 | 0.00 | 0.00 | 65 | 1005.1 |
| 20260509010027 | 43 | 305 | 0.0 | 2.0 | 0.00 | 0.00 | 0.00 | 65 | 1005.1 |
| 20260509005526 | 43 | 305 | 0.0 | 2.0 | 0.00 | 0.00 | 0.00 | 64 | 1005.0 |
| 20260509005024 | 44 | 305 | 0.0 | 2.0 | 0.00 | 0.00 | 0.00 | 62 | 1004.9 |
| 20260509004527 | 44 | 305 | 0.0 | 0.0 | 0.00 | 0.00 | 0.00 | 62 | 1004.9 |
| 20260509004024 | 45 | 305 | 0.0 | 0.0 | 0.00 | 0.00 | 0.00 | 60 | 1004.6 |
| 20260509003522 | 45 | 305 | 0.0 | 0.0 | 0.00 | 0.00 | 0.00 | 60 | 1004.6 |
| 20260509003040 | 45 | 305 | 0.0 | 0.0 | 0.00 | 0.00 | 0.00 | 58 | 1004.6 |
| 20260509002522 | 45 | 305 | 0.0 | 0.0 | 0.00 | 0.00 | 0.00 | 57 | 1004.6 |
| 20260509002023 | 46 | 305 | 0.0 | 0.0 | 0.00 | 0.00 | 0.00 | 57 | 1004.6 |
| 20260509001522 | 46 | 305 | 0.0 | 0.0 | 0.00 | 0.00 | 0.00 | 56 | 1004.6 |
| 20260509001021 | 46 | 305 | 0.0 | 0.0 | 0.00 | 0.00 | 0.00 | 55 | 1004.5 |
| 20260509000524 | 46 | 305 | 0.0 | 0.0 | 0.00 | 0.00 | 0.00 | 55 | 1004.5 |
| 20260509000021 | 47 | 305 | 0.0 | 0.0 | 0.00 | 0.00 | 0.00 | 55 | 1004.5 |
| 20260508235520 | 47 | 305 | 0.0 | 0.0 | 0.00 | 0.00 | 0.00 | 54 | 1004.5 |
| 20260508235019 | 47 | 305 | 0.0 | 0.0 | 0.00 | 0.00 | 0.00 | 57 | 1004.4 |
| 20260508234525 | 47 | 305 | 0.0 | 0.0 | 0.00 | 0.00 | 0.00 | 54 | 1004.4 |
| 20260508234018 | 47 | 305 | 0.0 | 0.0 | 0.00 | 0.00 | 0.00 | 53 | 1004.4 |
| 20260508233519 | 48 | 305 | 0.0 | 0.0 | 0.00 | 0.00 | 0.00 | 51 | 1004.3 |
| 20260508233019 | 48 | 305 | 0.0 | 0.0 | 0.00 | 0.00 | 0.00 | 50 | 1004.3 |
| 20260508232518 | 48 | 305 | 0.0 | 0.0 | 0.00 | 0.00 | 0.00 | 51 | 1004.2 |
| 20260508232019 | 48 | 305 | 0.0 | 0.0 | 0.00 | 0.00 | 0.00 | 49 | 1004.2 |
| 20260508231518 | 48 | 305 | 0.0 | 0.0 | 0.00 | 0.00 | 0.00 | 50 | 1004.2 |
| 20260508231018 | 48 | 305 | 0.0 | 0.0 | 0.00 | 0.00 | 0.00 | 48 | 1004.2 |
| 20260508230518 | 48 | 305 | 0.0 | 0.0 | 0.00 | 0.00 | 0.00 | 48 | 1004.2 |
| 20260508230017 | 48 | 305 | 0.0 | 1.0 | 0.00 | 0.00 | 0.00 | 50 | 1004.2 |
| 20260508225524 | 48 | 305 | 0.0 | 1.0 | 0.00 | 0.00 | 0.00 | 49 | 1004.2 |
| 20260508225017 | 48 | 305 | 0.0 | 2.0 | 0.00 | 0.00 | 0.00 | 50 | 1004.2 |
| 20260508224516 | 48 | 309 | 1.0 | 3.0 | 0.00 | 0.00 | 0.00 | 48 | 1004.2 |
| 20260508224016 | 48 | 300 | 1.0 | 4.0 | 0.00 | 0.00 | 0.00 | 48 | 1004.2 |
| 20260508223519 | 48 | 302 | 2.0 | 5.0 | 0.00 | 0.00 | 0.00 | 46 | 1004.2 |
| 20260508223018 | 49 | 293 | 2.0 | 5.0 | 0.00 | 0.00 | 0.00 | 45 | 1004.1 |
| 20260508222515 | 49 | 338 | 1.0 | 4.0 | 0.00 | 0.00 | 0.00 | 48 | 1004.2 |
| 20260508222015 | 49 | 305 | 1.0 | 4.0 | 0.00 | 0.00 | 0.00 | 47 | 1004.2 |
| 20260508221520 | 49 | 338 | 2.0 | 10.0 | 0.00 | 0.00 | 0.00 | 47 | 1004.1 |
| 20260508221017 | 49 | 271 | 3.0 | 10.0 | 0.00 | 0.00 | 0.00 | 48 | 1004.1 |
| 20260508220519 | 50 | 280 | 1.0 | 4.0 | 0.00 | 0.00 | 0.00 | 52 | 1004.2 |
| 20260508220017 | 50 | 312 | 1.0 | 3.0 | 0.00 | 0.00 | 0.00 | 46 | 1004.1 |
| 20260508215514 | 50 | 243 | 1.0 | 6.0 | 0.00 | 0.00 | 0.00 | 44 | 1004.0 |
| 20260508215016 | 50 | 318 | 1.0 | 6.0 | 0.00 | 0.00 | 0.00 | 45 | 1004.0 |
| 20260508214512 | 50 | 273 | 2.0 | 5.0 | 0.00 | 0.00 | 0.00 | 46 | 1004.1 |
| 20260508214010 | 49 | 331 | 2.0 | 4.0 | 0.00 | 0.00 | 0.00 | 49 | 1004.1 |
| 20260508213511 | 49 | 272 | 1.0 | 5.0 | 0.00 | 0.00 | 0.00 | 46 | 1004.1 |
| 20260508213011 | 48 | 167 | 1.0 | 5.0 | 0.00 | 0.00 | 0.00 | 48 | 1004.1 |
| 20260508212514 | 48 | 317 | 2.0 | 6.0 | 0.00 | 0.00 | 0.00 | 48 | 1004.0 |
| 20260508212010 | 48 | 330 | 3.0 | 8.0 | 0.00 | 0.00 | 0.00 | 47 | 1004.1 |
| 20260508211509 | 48 | 360 | 3.0 | 8.0 | 0.00 | 0.00 | 0.00 | 45 | 1004.1 |
| 20260508211010 | 49 | 344 | 1.0 | 5.0 | 0.00 | 0.00 | 0.00 | 46 | 1003.9 |
| 20260508210510 | 49 | 302 | 3.0 | 5.0 | 0.00 | 0.00 | 0.00 | 47 | 1004.0 |
| 20260508210013 | 49 | 331 | 2.0 | 6.0 | 0.00 | 0.00 | 0.00 | 45 | 1003.9 |
| 20260508205509 | 49 | 242 | 2.0 | 7.0 | 0.00 | 0.00 | 0.00 | 45 | 1003.9 |
| 20260508205011 | 49 | 275 | 3.0 | 7.0 | 0.00 | 0.00 | 0.00 | 46 | 1003.9 |
| 20260508204510 | 49 | 259 | 2.0 | 10.0 | 0.00 | 0.00 | 0.00 | 47 | 1003.8 |
| 20260508204009 | 49 | 309 | 3.0 | 10.0 | 0.00 | 0.00 | 0.00 | 44 | 1003.9 |
| 20260508203509 | 49 | 291 | 2.0 | 10.0 | 0.00 | 0.00 | 0.00 | 47 | 1003.8 |
| 20260508203008 | 49 | 325 | 5.0 | 10.0 | 0.00 | 0.00 | 0.00 | 45 | 1003.8 |
| 20260508202508 | 49 | 287 | 2.0 | 10.0 | 0.00 | 0.00 | 0.00 | 47 | 1003.8 |
| 20260508202009 | 49 | 301 | 4.0 | 10.0 | 0.00 | 0.00 | 0.00 | 47 | 1003.8 |
| 20260508201506 | 49 | 329 | 4.0 | 9.0 | 0.00 | 0.00 | 0.00 | 50 | 1003.7 |
| 20260508201009 | 49 | 306 | 3.0 | 8.0 | 0.00 | 0.00 | 0.00 | 50 | 1003.9 |
| 20260508200505 | 48 | 317 | 2.0 | 5.0 | 0.00 | 0.00 | 0.00 | 52 | 1003.9 |
| 20260508200005 | 48 | 283 | 1.0 | 7.0 | 0.00 | 0.00 | 0.00 | 50 | 1003.9 |
| 20260508195504 | 48 | 18 | 3.0 | 9.0 | 0.00 | 0.00 | 0.00 | 49 | 1003.9 |
| 20260508195004 | 48 | 285 | 1.0 | 9.0 | 0.00 | 0.00 | 0.00 | 51 | 1003.9 |
| 20260508194504 | 48 | 238 | 1.0 | 9.0 | 0.00 | 0.00 | 0.00 | 50 | 1003.9 |
| 20260508194003 | 48 | 309 | 4.0 | 9.0 | 0.00 | 0.00 | 0.00 | 51 | 1004.0 |
| 20260508193503 | 48 | 350 | 1.0 | 6.0 | 0.00 | 0.00 | 0.00 | 52 | 1004.0 |
| 20260508193003 | 47 | 261 | 2.0 | 8.0 | 0.00 | 0.00 | 0.00 | 51 | 1004.0 |
| 20260508192504 | 47 | 319 | 4.0 | 8.0 | 0.00 | 0.00 | 0.00 | 52 | 1004.0 |
| 20260508192003 | 47 | 344 | 2.0 | 5.0 | 0.00 | 0.00 | 0.00 | 53 | 1003.9 |
| 20260508191501 | 47 | 239 | 2.0 | 9.0 | 0.00 | 0.00 | 0.00 | 53 | 1003.9 |
| 20260508191001 | 47 | 310 | 3.0 | 9.0 | 0.00 | 0.00 | 0.00 | 55 | 1004.0 |
| 20260508190501 | 46 | 161 | 2.0 | 7.0 | 0.00 | 0.00 | 0.00 | 55 | 1003.9 |
| 20260508190002 | 46 | 346 | 2.0 | 5.0 | 0.00 | 0.00 | 0.00 | 55 | 1004.0 |
| 20260508185601 | 46 | 321 | 1.0 | 5.0 | 0.00 | 0.00 | 0.00 | 55 | 1004.1 |
| 20260508185100 | 46 | 321 | 1.0 | 6.0 | 0.00 | 0.00 | 0.00 | 58 | 1004.2 |
| 20260508184611 | 46 | 44 | 3.0 | 12.0 | 0.00 | 0.00 | 0.00 | 58 | 1004.3 |
| 20260508184502 | 46 | 319 | 2.0 | 12.0 | 0.00 | 0.00 | 0.00 | 59 | 1004.3 |
| 20260508184100 | 46 | 342 | 5.0 | 12.0 | 0.00 | 0.00 | 0.00 | 58 | 1004.4 |
| 20260508183604 | 47 | 350 | 4.0 | 11.0 | 0.00 | 0.00 | 0.00 | 54 | 1004.3 |
| 20260508183108 | 47 | 294 | 3.0 | 9.0 | 0.00 | 0.00 | 0.00 | 53 | 1004.2 |
| 20260508182601 | 47 | 265 | 3.0 | 6.0 | 0.00 | 0.00 | 0.00 | 51 | 1004.0 |
| 20260508182100 | 47 | 271 | 2.0 | 8.0 | 0.00 | 0.00 | 0.00 | 51 | 1004.1 |
| 20260508181601 | 47 | 133 | 2.0 | 10.0 | 0.00 | 0.00 | 0.00 | 54 | 1004.1 |
| 20260508181100 | 47 | 325 | 3.0 | 10.0 | 0.00 | 0.00 | 0.00 | 53 | 1004.1 |
| 20260508180559 | 48 | 340 | 3.0 | 6.0 | 0.00 | 0.00 | 0.00 | 52 | 1004.2 |
| 20260508180100 | 48 | 264 | 1.0 | 4.0 | 0.00 | 0.00 | 0.00 | 51 | 1004.0 |
| 20260508175557 | 47 | 348 | 2.0 | 5.0 | 0.00 | 0.00 | 0.00 | 52 | 1004.1 |
| 20260508175058 | 47 | 314 | 2.0 | 7.0 | 0.00 | 0.00 | 0.00 | 56 | 1004.1 |
| 20260508174605 | 46 | 298 | 3.0 | 7.0 | 0.00 | 0.00 | 0.00 | 54 | 1004.0 |
| 20260508174057 | 46 | 296 | 2.0 | 6.0 | 0.00 | 0.00 | 0.00 | 53 | 1004.1 |
| 20260508173556 | 46 | 286 | 1.0 | 6.0 | 0.00 | 0.00 | 0.00 | 55 | 1004.2 |
| 20260508173056 | 45 | 267 | 1.0 | 5.0 | 0.00 | 0.00 | 0.00 | 55 | 1004.1 |
| 20260508172555 | 45 | 309 | 1.0 | 7.0 | 0.00 | 0.00 | 0.00 | 56 | 1004.2 |
| 20260508172055 | 45 | 312 | 1.0 | 8.0 | 0.00 | 0.00 | 0.00 | 56 | 1004.2 |
| 20260508171559 | 45 | 323 | 4.0 | 8.0 | 0.00 | 0.00 | 0.00 | 56 | 1004.2 |
| 20260508171058 | 45 | 262 | 2.0 | 9.0 | 0.00 | 0.00 | 0.00 | 57 | 1004.2 |
| 20260508170601 | 45 | 338 | 4.0 | 9.0 | 0.00 | 0.00 | 0.00 | 55 | 1004.2 |
| 20260508170057 | 45 | 288 | 1.0 | 5.0 | 0.00 | 0.00 | 0.00 | 57 | 1004.2 |
| 20260508165554 | 46 | 300 | 3.0 | 5.0 | 0.00 | 0.00 | 0.00 | 55 | 1004.1 |
| 20260508165055 | 46 | 336 | 0.0 | 5.0 | 0.00 | 0.00 | 0.00 | 58 | 1004.1 |
| 20260508164555 | 46 | 286 | 2.0 | 7.0 | 0.00 | 0.00 | 0.00 | 55 | 1004.1 |
| 20260508164055 | 46 | 262 | 2.0 | 7.0 | 0.00 | 0.00 | 0.00 | 57 | 1004.1 |
| 20260508163553 | 46 | 319 | 2.0 | 5.0 | 0.00 | 0.00 | 0.00 | 57 | 1004.2 |
| 20260508163114 | 46 | 304 | 3.0 | 8.0 | 0.00 | 0.00 | 0.00 | 56 | 1004.1 |
| 20260508162553 | 45 | 279 | 1.0 | 8.0 | 0.00 | 0.00 | 0.00 | 55 | 1004.0 |
| 20260508162053 | 46 | 319 | 2.0 | 7.0 | 0.00 | 0.00 | 0.00 | 58 | 1004.1 |
| 20260508161552 | 46 | 289 | 3.0 | 8.0 | 0.00 | 0.00 | 0.00 | 59 | 1004.1 |
| 20260508161052 | 46 | 279 | 4.0 | 8.0 | 0.00 | 0.00 | 0.00 | 55 | 1004.1 |
| 20260508160552 | 46 | 327 | 3.0 | 6.0 | 0.00 | 0.00 | 0.00 | 57 | 1004.0 |
| 20260508160052 | 46 | 333 | 3.0 | 12.0 | 0.00 | 0.00 | 0.00 | 58 | 1004.1 |
| 20260508155551 | 45 | 295 | 4.0 | 12.0 | 0.00 | 0.00 | 0.00 | 58 | 1004.0 |
| 20260508155054 | 45 | 309 | 6.0 | 12.0 | 0.00 | 0.00 | 0.00 | 57 | 1004.0 |
| 20260508154554 | 46 | 306 | 3.0 | 10.0 | 0.00 | 0.00 | 0.00 | 59 | 1003.9 |
| 20260508154050 | 46 | 284 | 2.0 | 10.0 | 0.00 | 0.00 | 0.00 | 55 | 1004.0 |
| 20260508153551 | 47 | 284 | 4.0 | 10.0 | 0.00 | 0.00 | 0.00 | 55 | 1003.9 |
| 20260508153054 | 47 | 240 | 3.0 | 13.0 | 0.00 | 0.00 | 0.00 | 57 | 1003.9 |
| 20260508152551 | 47 | 5 | 5.0 | 13.0 | 0.00 | 0.00 | 0.00 | 54 | 1003.9 |
| 20260508152049 | 46 | 301 | 7.0 | 12.0 | 0.00 | 0.00 | 0.00 | 55 | 1003.8 |
| 20260508151548 | 46 | 329 | 3.0 | 10.0 | 0.00 | 0.00 | 0.00 | 59 | 1003.8 |
| 20260508151049 | 46 | 294 | 3.0 | 11.0 | 0.00 | 0.00 | 0.00 | 56 | 1003.9 |
| 20260508150548 | 46 | 282 | 4.0 | 11.0 | 0.00 | 0.00 | 0.00 | 58 | 1003.9 |
| 20260508150047 | 45 | 291 | 3.0 | 11.0 | 0.00 | 0.00 | 0.00 | 60 | 1004.0 |
| 20260508145548 | 45 | 318 | 5.0 | 11.0 | 0.00 | 0.00 | 0.00 | 57 | 1003.9 |
| 20260508145046 | 46 | 306 | 4.0 | 11.0 | 0.00 | 0.00 | 0.00 | 59 | 1003.9 |
| 20260508144545 | 45 | 314 | 1.0 | 6.0 | 0.00 | 0.00 | 0.00 | 61 | 1003.9 |
| 20260508144043 | 45 | 85 | 2.0 | 8.0 | 0.00 | 0.00 | 0.00 | 62 | 1004.0 |
| 20260508143544 | 44 | 281 | 3.0 | 8.0 | 0.00 | 0.00 | 0.00 | 64 | 1004.1 |
| 20260508143040 | 44 | 251 | 2.0 | 5.0 | 0.00 | 0.00 | 0.00 | 65 | 1004.1 |
| 20260508142538 | 43 | 331 | 1.0 | 6.0 | 0.00 | 0.00 | 0.00 | 67 | 1004.1 |
| 20260508142038 | 43 | 268 | 4.0 | 8.0 | 0.00 | 0.00 | 0.00 | 67 | 1004.1 |
| 20260508141536 | 43 | 292 | 4.0 | 8.0 | 0.00 | 0.00 | 0.00 | 68 | 1004.1 |
| 20260508141035 | 43 | 360 | 1.0 | 7.0 | 0.00 | 0.00 | 0.00 | 69 | 1004.1 |
| 20260508140534 | 42 | 310 | 1.0 | 10.0 | 0.00 | 0.00 | 0.00 | 72 | 1004.1 |
| 20260508140034 | 42 | 283 | 4.0 | 10.0 | 0.00 | 0.00 | 0.00 | 72 | 1004.1 |
| 20260508135535 | 42 | 328 | 2.0 | 4.0 | 0.00 | 0.00 | 0.00 | 72 | 1004.2 |
| 20260508135032 | 42 | 311 | 1.0 | 5.0 | 0.00 | 0.00 | 0.00 | 72 | 1004.2 |
| 20260508134537 | 42 | 319 | 1.0 | 5.0 | 0.00 | 0.00 | 0.00 | 72 | 1004.2 |
| 20260508134031 | 42 | 211 | 0.0 | 4.0 | 0.00 | 0.00 | 0.00 | 73 | 1004.2 |
| 20260508133534 | 42 | 259 | 2.0 | 6.0 | 0.00 | 0.00 | 0.00 | 72 | 1004.2 |
| 20260508133034 | 42 | 278 | 2.0 | 6.0 | 0.00 | 0.00 | 0.00 | 71 | 1004.2 |
| 20260508132532 | 42 | 329 | 2.0 | 5.0 | 0.00 | 0.00 | 0.00 | 73 | 1004.2 |
| 20260508132030 | 41 | 325 | 1.0 | 4.0 | 0.00 | 0.00 | 0.00 | 74 | 1004.2 |
| 20260508131528 | 41 | 327 | 2.0 | 4.0 | 0.00 | 0.00 | 0.00 | 73 | 1004.2 |
| 20260508131027 | 41 | 254 | 1.0 | 4.0 | 0.00 | 0.00 | 0.00 | 73 | 1004.2 |
| 20260508130530 | 41 | 284 | 1.0 | 4.0 | 0.00 | 0.00 | 0.00 | 74 | 1004.2 |
| 20260508130027 | 41 | 202 | 1.0 | 4.0 | 0.00 | 0.00 | 0.00 | 73 | 1004.1 |
| 20260508125527 | 41 | 326 | 2.0 | 4.0 | 0.00 | 0.00 | 0.00 | 73 | 1004.1 |
| 20260508125027 | 41 | 347 | 1.0 | 4.0 | 0.00 | 0.00 | 0.00 | 73 | 1004.1 |
| 20260508124525 | 41 | 347 | 1.0 | 5.0 | 0.00 | 0.00 | 0.00 | 75 | 1004.1 |
| 20260508124024 | 41 | 306 | 3.0 | 5.0 | 0.00 | 0.00 | 0.00 | 73 | 1004.1 |
| 20260508123524 | 41 | 337 | 2.0 | 5.0 | 0.00 | 0.00 | 0.00 | 75 | 1004.1 |
| 20260508123031 | 41 | 179 | 0.0 | 4.0 | 0.00 | 0.00 | 0.00 | 74 | 1004.0 |
| 20260508122522 | 40 | 206 | 0.0 | 3.0 | 0.00 | 0.00 | 0.00 | 75 | 1004.1 |
| 20260508122026 | 40 | 148 | 1.0 | 3.0 | 0.00 | 0.00 | 0.00 | 74 | 1004.0 |
| 20260508121522 | 40 | 306 | 0.0 | 4.0 | 0.00 | 0.00 | 0.00 | 74 | 1004.0 |
| 20260508121021 | 40 | 254 | 1.0 | 4.0 | 0.00 | 0.00 | 0.00 | 75 | 1003.9 |
| 20260508120519 | 40 | 276 | 0.0 | 3.0 | 0.00 | 0.00 | 0.00 | 74 | 1003.9 |
| 20260508120019 | 40 | 355 | 1.0 | 3.0 | 0.00 | 0.00 | 0.00 | 74 | 1003.9 |
| 20260508115518 | 40 | 247 | 1.0 | 3.0 | 0.00 | 0.00 | 0.00 | 76 | 1003.9 |